Harrison, AR

2:51 PM CDT on June 25, 2019 (GMT -0500)
Boone County

Weather History for KHRO - May, 2019

Change the Weather History Date:

Sunday, May 19, 2019

  Actual Average Record
Temperature  
Mean Temperature 65 °F 66 °F  
Max Temperature 75 °F 77 °F 92 °F (1937)
Min Temperature 54 °F 56 °F 39 °F (2002)
Degree Days  
Heating Degree Days 0 2  
Month to date heating degree days 59 60  
Since 1 July heating degree days 3988 3981  
Cooling Degree Days 0 4  
Month to date cooling degree days 43 49  
Year to date cooling degree days 86 86  
Growing Degree Days 15 (Base 50)    
Moisture  
Dew Point 58 °F    
Average Humidity 77    
Maximum Humidity 100    
Minimum Humidity 46    
Precipitation  
Precipitation T in 0.14 in 2.53 in (1960)
Month to date precipitation 4.20 3.04  
Year to date precipitation 22.29 16.35  
Snow  
Snow 0.00 in 0.00 in - ()
Month to date snowfall 0.0 0.0  
Since 1 July snowfall 4.5 11.5  
Snow Depth 0.00 in    
Sea Level Pressure  
Sea Level Pressure 29.80 in    
Wind  
Wind Speed 8 mph ()    
Max Wind Speed 21 mph    
Max Gust Speed 31 mph    
Visibility 10.0 miles    
Events Rain , Thunderstorm    
T = Trace of Precipitation, MM = Missing Value Source: Averaged Metar Reports

Daily Weather History Graph

Daily Weather History Graph

Search for Another Location

Airport or City:

Astronomy

May. 19, 2019 Rise Set
Actual Time 6:03 AM CDT 8:15 PM CDT
Civil Twilight 5:34 AM CDT 8:44 PM CDT
Nautical Twilight 4:59 AM CDT 9:19 PM CDT
Astronomical Twilight 4:20 AM CDT 9:58 PM CDT
Moon 9:16 PM CDT (5/19) 6:48 AM CDT (5/19)
Length of Visible Light 15h 09m
Length of Day
14h 11m
Full, 99% of the Moon is Illuminated
May 19
Full
May 26
Last Quarter
Jun 3
New
Jun 10
First Quarter
Jun 17
Full

Hourly Weather History & Observations

Time (CDT) Temp. Dew Point Humidity Pressure Visibility Wind Dir Wind Speed Gust Speed Precip Events Conditions
12:16 AM 61.0 °F 59.0 °F 93% 29.71 in 10.0 mi SSE 10.4 mph - N/A Thunderstorm Scattered Clouds
12:35 AM 62.1 °F 59.0 °F 90% 29.72 in 10.0 mi South 12.7 mph 20.7 mph N/A   Scattered Clouds
12:53 AM 62.1 °F 59.0 °F 90% 29.68 in 10.0 mi South 11.5 mph - N/A   Partly Cloudy
1:53 AM 62.1 °F 60.1 °F 93% 29.68 in 10.0 mi South 10.4 mph - N/A   Clear
2:53 AM 62.1 °F 60.1 °F 93% 29.66 in 10.0 mi South 10.4 mph - N/A   Clear
3:30 AM 64.0 °F 60.1 °F 87% 29.74 in 10.0 mi Variable 4.6 mph 21.9 mph N/A   Mostly Cloudy
3:53 AM 64.0 °F 59.0 °F 84% 29.73 in 10.0 mi WNW 8.1 mph - 0.00 in Rain Light Rain
4:20 AM 60.1 °F 57.9 °F 93% 29.73 in 10.0 mi SE 3.5 mph - 0.00 in   Scattered Clouds
4:53 AM 61.0 °F 59.0 °F 93% 29.71 in 10.0 mi SE 5.8 mph - 0.00 in   Mostly Cloudy
5:19 AM 62.1 °F 60.1 °F 93% 29.73 in 10.0 mi SSE 9.2 mph - N/A   Scattered Clouds
5:53 AM 63.0 °F 62.1 °F 97% 29.71 in 10.0 mi South 8.1 mph - N/A   Scattered Clouds
6:02 AM 63.0 °F 62.1 °F 97% 29.74 in 10.0 mi South 11.5 mph - N/A   Mostly Cloudy
6:20 AM 63.0 °F 62.1 °F 97% 29.75 in 10.0 mi South 6.9 mph - N/A   Overcast
6:53 AM 64.0 °F 62.1 °F 93% 29.74 in 10.0 mi South 4.6 mph - N/A   Overcast
7:12 AM 64.0 °F 63.0 °F 96% 29.76 in 10.0 mi South 4.6 mph - N/A   Overcast
7:53 AM 68.0 °F 63.0 °F 84% 29.74 in 10.0 mi WSW 8.1 mph - N/A   Partly Cloudy
8:53 AM 70.0 °F 61.0 °F 73% 29.76 in 10.0 mi WSW 9.2 mph 25.3 mph N/A   Scattered Clouds
9:53 AM 72.0 °F 60.1 °F 66% 29.78 in 10.0 mi West 13.8 mph 21.9 mph N/A   Partly Cloudy
10:53 AM 72.0 °F 57.9 °F 61% 29.82 in 10.0 mi West 17.3 mph 25.3 mph N/A   Scattered Clouds
11:53 AM 72.0 °F 55.9 °F 57% 29.85 in 10.0 mi NW 11.5 mph 19.6 mph N/A   Clear
12:53 PM 72.0 °F 54.0 °F 53% 29.87 in 10.0 mi WNW 18.4 mph 25.3 mph N/A   Clear
1:53 PM 73.0 °F 55.0 °F 53% 29.88 in 10.0 mi NW 13.8 mph 23.0 mph N/A   Clear
2:53 PM 73.0 °F 55.9 °F 55% 29.90 in 10.0 mi West 10.4 mph - N/A   Clear
3:53 PM 75.0 °F 55.0 °F 50% 29.89 in 10.0 mi West 10.4 mph - N/A   Clear
4:53 PM 75.0 °F 54.0 °F 48% 29.90 in 10.0 mi WNW 10.4 mph 17.3 mph N/A   Clear
5:53 PM 73.9 °F 54.0 °F 50% 29.90 in 10.0 mi West 10.4 mph - N/A   Clear
6:53 PM 72.0 °F 53.1 °F 51% 29.90 in 10.0 mi WNW 6.9 mph - N/A   Clear
7:53 PM 69.1 °F 54.0 °F 58% 29.93 in 10.0 mi NW 5.8 mph - N/A   Clear
8:53 PM 64.0 °F 53.1 °F 67% 29.94 in 10.0 mi NNW 4.6 mph - N/A   Clear
9:53 PM 62.1 °F 53.1 °F 72% 29.95 in 10.0 mi WNW 3.5 mph - N/A   Clear
10:53 PM 57.9 °F 54.0 °F 87% 29.97 in 10.0 mi Calm Calm - N/A   Clear
11:53 PM 57.0 °F 53.1 °F 87% 29.99 in 10.0 mi Calm Calm - N/A   Clear